�N����,����,�~����,�C��,���x,�C��,����,���ϕ���,�ő�u�ԕ���,�ő厞����,���˗�,�I�_���x,�n�����x,�ő啗���N��,DTYPE
"17/06/29","00:10",0.0,22.1,90.6,1008.3,286.6,1.1,1.4,272.3,0.00,20.5,23.7,"00:00:48",1
"17/06/29","00:20",0.0,22.1,90.8,1008.1,293.7,1.2,1.7,307.2,0.00,20.6,23.7,"00:14:32",1
"17/06/29","00:30",0.0,22.0,90.8,1008.1,307.4,1.2,1.3,316.4,0.00,20.5,23.8,"00:23:52",1
"17/06/29","00:40",0.0,22.0,91.1,1008.1,285.9,1.1,1.7,321.6,0.00,20.5,23.4,"00:39:44",1
"17/06/29","00:50",0.0,21.9,91.3,1007.8,309.7,1.5,2.2,326.9,0.00,20.5,23.4,"00:43:28",1
"17/06/29","01:00",0.0,22.0,91.3,1007.8,324.2,2.1,3.5,333.2,0.00,20.6,23.5,"00:54:24",1
"17/06/29","01:10",0.0,22.0,91.0,1007.8,297.6,1.0,1.4,326.0,0.00,20.5,23.5,"01:00:24",1
"17/06/29","01:20",0.0,21.9,91.1,1007.6,280.7,0.8,1.6,301.1,0.00,20.4,23.5,"01:10:02",1
"17/06/29","01:30",0.0,21.8,91.4,1007.8,273.0,1.0,1.7,305.5,0.00,20.4,23.3,"01:20:08",1
"17/06/29","01:40",0.0,21.9,91.4,1008.3,284.5,1.2,1.8,323.7,0.00,20.5,23.3,"01:39:04",1
"17/06/29","01:50",0.0,21.9,91.4,1007.8,328.1,1.3,2.0,322.1,0.00,20.5,23.2,"01:47:44",1
"17/06/29","02:00",0.0,21.9,91.4,1007.8,306.0,1.2,1.8,308.8,0.00,20.5,23.3,"01:55:44",1
"17/06/29","02:10",0.0,21.8,91.6,1007.6,327.0,1.3,1.8,331.3,0.00,20.4,23.2,"02:08:00",1
"17/06/29","02:20",0.0,21.6,91.8,1007.8,311.4,1.5,2.4,320.7,0.00,20.2,23.2,"02:12:00",1
"17/06/29","02:30",0.0,21.5,91.8,1008.1,293.7,1.1,1.7,273.7,0.00,20.2,23.2,"02:22:16",1
"17/06/29","02:40",0.0,21.5,92.1,1007.8,288.8,1.1,1.9,321.6,0.00,20.2,23.1,"02:39:52",1
"17/06/29","02:50",0.0,21.5,92.1,1008.1,315.0,1.3,2.4,307.1,0.00,20.2,23.1,"02:48:40",1
"17/06/29","03:00",0.0,21.5,92.1,1008.8,294.8,1.1,1.6,309.3,0.00,20.2,23.1,"02:50:40",1
"17/06/29","03:10",0.0,21.4,92.2,1008.6,305.6,1.2,1.9,327.5,0.00,20.1,23.1,"03:06:00",1
"17/06/29","03:20",0.0,21.5,92.4,1008.6,307.2,1.2,1.6,322.5,0.00,20.3,23.1,"03:13:04",1
"17/06/29","03:30",0.0,21.5,92.5,1008.6,304.2,1.5,2.5,325.5,0.00,20.3,22.9,"03:27:12",1
"17/06/29","03:40",0.0,21.5,92.6,1008.3,323.1,1.2,1.7,309.1,0.00,20.3,23.1,"03:31:28",1
"17/06/29","03:50",0.0,21.6,92.4,1008.6,329.6,1.6,2.7,321.5,0.00,20.4,23.0,"03:48:40",1
"17/06/29","04:00",0.0,21.4,92.4,1008.1,273.3,1.0,2.1,314.8,0.00,20.2,23.1,"03:50:08",1
"17/06/29","04:10",0.0,21.4,92.4,1007.8,297.9,1.2,1.7,299.5,0.00,20.2,22.9,"04:03:44",1
"17/06/29","04:20",0.0,21.3,92.6,1008.6,290.9,1.1,1.3,299.6,0.00,20.1,23.0,"04:12:48",1
"17/06/29","04:30",0.0,21.3,92.6,1008.6,303.0,1.2,1.8,305.1,0.00,20.1,22.9,"04:22:40",1
"17/06/29","04:40",0.0,21.3,92.6,1008.8,302.6,1.2,1.6,320.5,0.00,20.1,22.8,"04:31:28",1
"17/06/29","04:50",0.0,21.2,92.7,1008.6,284.5,1.2,1.7,325.5,0.00,20.0,22.9,"04:40:08",1
"17/06/29","05:00",0.0,21.2,92.8,1009.0,306.4,1.2,1.7,340.3,0.00,20.0,22.8,"04:58:00",1
"17/06/29","05:10",0.0,21.3,92.9,1008.8,335.2,1.1,1.9,343.1,0.00,20.1,22.6,"05:01:36",1
"17/06/29","05:20",0.0,21.3,92.8,1009.3,315.5,1.6,2.0,317.7,0.00,20.1,22.7,"05:12:16",1
"17/06/29","05:30",0.0,21.2,92.9,1009.3,287.1,1.1,1.3,278.8,0.00,20.0,22.7,"05:21:04",1
"17/06/29","05:40",0.0,21.2,93.1,1009.5,305.6,1.5,2.5,316.1,0.00,20.1,22.5,"05:34:16",1
"17/06/29","05:50",0.0,21.3,93.1,1009.5,299.4,1.2,1.7,322.2,0.00,20.2,22.7,"05:46:40",1
"17/06/29","06:00",0.0,21.4,93.2,1009.3,308.5,1.3,2.0,320.8,0.00,20.3,22.7,"05:50:02",1
"17/06/29","06:10",0.0,21.5,93.0,1009.5,304.8,1.2,1.8,324.3,0.01,20.4,22.9,"06:00:24",1
"17/06/29","06:20",0.0,21.6,93.0,1009.7,300.3,1.2,2.2,325.5,0.01,20.5,22.8,"06:12:48",1
"17/06/29","06:30",0.0,21.8,92.9,1009.5,279.3,0.8,1.1,289.1,0.00,20.6,22.6,"06:23:20",1
"17/06/29","06:40",0.0,21.9,92.4,1009.5,280.1,1.0,1.1,276.7,0.01,20.7,22.7,"06:33:52",1
"17/06/29","06:50",0.0,22.0,92.0,1009.5,286.0,0.8,1.1,309.7,0.03,20.7,22.8,"06:46:48",1
"17/06/29","07:00",0.0,22.3,91.5,1009.5,290.7,1.0,1.8,328.3,0.04,20.9,22.8,"06:58:48",1
"17/06/29","07:10",0.0,22.4,90.5,1009.3,313.4,1.1,1.6,327.0,0.03,20.8,22.7,"07:06:08",1
"17/06/29","07:20",0.0,22.5,90.4,1009.7,320.8,1.2,1.6,332.3,0.01,20.9,22.9,"07:16:24",1
"17/06/29","07:30",0.0,22.7,90.1,1009.5,314.0,0.8,1.2,338.4,0.04,21.0,22.7,"07:21:52",1
"17/06/29","07:40",0.0,22.9,89.7,1009.5,329.6,1.3,2.2,339.5,0.04,21.2,22.7,"07:39:04",1
"17/06/29","07:50",0.0,22.9,89.4,1009.5,327.9,1.6,2.2,337.3,0.04,21.1,22.9,"07:42:16",1
"17/06/29","08:00",0.0,23.2,88.7,1010.0,317.0,1.1,1.6,322.4,0.06,21.3,22.9,"07:50:56",1
"17/06/29","08:10",0.0,23.5,87.3,1010.0,319.3,1.1,1.7,339.8,0.07,21.3,22.9,"08:08:08",1
"17/06/29","08:20",0.0,23.8,85.6,1009.7,312.4,1.0,1.3,333.8,0.09,21.3,23.0,"08:11:20",1
"17/06/29","08:30",0.0,24.2,83.5,1009.7,323.6,0.6,1.1,300.1,0.10,21.3,23.0,"08:21:20",1
"17/06/29","08:40",0.0,24.4,82.2,1009.5,310.0,0.8,1.6,341.7,0.11,21.2,23.1,"08:34:16",1
"17/06/29","08:50",0.0,24.7,81.3,1009.5,306.6,1.1,2.0,318.4,0.16,21.3,23.2,"08:41:36",1
"17/06/29","09:00",0.0,25.0,81.6,1009.7,232.6,0.7,1.3,199.7,0.17,21.7,23.3,"08:57:20",1
"17/06/29","09:10",0.0,25.4,79.6,1009.0,191.5,0.3,1.1,161.4,0.18,21.7,23.2,"09:09:56",1
"17/06/29","09:20",0.0,25.4,79.3,1009.0,162.4,0.5,1.4,119.3,0.18,21.6,23.3,"09:14:56",1
"17/06/29","09:30",0.0,25.7,76.7,1009.0,166.9,0.3,0.9,166.3,0.19,21.3,23.6,"09:24:32",1
"17/06/29","09:40",0.0,26.0,77.2,1008.6,14.6,0.7,1.7,9.1,0.22,21.7,23.6,"09:34:00",1
"17/06/29","09:50",0.0,26.2,76.4,1008.6,51.2,0.5,1.6,11.0,0.19,21.8,23.7,"09:42:32",1
"17/06/29","10:00",0.0,25.9,75.9,1008.8,18.5,0.8,2.1,356.0,0.20,21.4,23.9,"09:54:48",1
"17/06/29","10:10",0.0,26.0,76.1,1008.3,8.3,0.8,1.9,11.0,0.20,21.5,24.2,"10:00:56",1
"17/06/29","10:20",0.0,27.1,73.7,1008.1,335.9,0.8,2.8,352.1,0.34,22.0,24.1,"10:10:56",1
"17/06/29","10:30",0.0,27.7,70.7,1007.8,347.1,0.6,2.1,338.3,0.41,21.9,24.3,"10:28:24",1
"17/06/29","10:40",0.0,27.6,71.2,1007.8,356.4,0.8,2.5,305.8,0.35,22.0,24.3,"10:38:48",1
"17/06/29","10:50",0.0,27.9,69.9,1008.3,347.3,0.6,1.6,314.8,0.34,21.9,24.5,"10:43:04",1
"17/06/29","11:00",0.0,27.9,71.5,1008.6,225.1,0.6,1.3,198.1,0.28,22.3,24.7,"10:59:20",1
"17/06/29","11:10",0.0,27.9,71.6,1008.6,197.5,0.8,1.6,223.2,0.31,22.3,24.8,"11:05:28",1
"17/06/29","11:20",0.0,27.9,69.8,1008.6,199.2,1.5,2.2,185.3,0.34,21.9,25.2,"11:19:04",1
"17/06/29","11:30",0.0,28.3,67.9,1009.0,168.5,0.6,1.4,172.8,0.31,21.8,25.1,"11:20:08",1
"17/06/29","11:40",0.0,28.7,68.0,1008.6,135.9,0.6,1.8,130.6,0.30,22.2,25.2,"11:34:16",1
"17/06/29","11:50",0.0,28.3,67.7,1008.8,164.5,1.2,2.9,127.9,0.29,21.8,25.3,"11:40:40",1
"17/06/29","12:00",0.0,28.1,66.6,1008.8,186.3,1.1,2.7,191.4,0.21,21.3,25.6,"11:53:20",1
"17/06/29","12:10",0.0,27.8,68.3,1008.3,157.4,1.1,2.4,150.5,0.19,21.5,25.5,"12:03:52",1
"17/06/29","12:20",0.0,28.2,66.3,1008.3,139.8,0.8,2.4,164.5,0.23,21.4,25.7,"12:19:36",1
"17/06/29","12:30",0.0,27.8,66.4,1008.1,158.4,1.6,2.8,183.8,0.20,21.0,25.6,"12:25:36",1
"17/06/29","12:40",0.0,28.5,66.7,1008.1,175.2,1.2,3.2,218.8,0.24,21.7,25.7,"12:31:52",1
"17/06/29","12:50",0.0,27.8,68.1,1007.4,192.3,1.5,3.2,176.5,0.19,21.4,25.7,"12:42:32",1
"17/06/29","13:00",0.0,27.8,67.9,1006.9,174.9,1.5,2.8,177.9,0.17,21.4,25.7,"12:54:00",1
"17/06/29","13:10",0.0,28.0,67.6,1006.9,175.3,1.2,2.9,132.1,0.21,21.5,25.6,"13:04:00",1
"17/06/29","13:20",0.0,28.1,67.0,1006.9,183.9,1.2,3.7,212.5,0.21,21.4,25.5,"13:18:16",1
"17/06/29","13:30",0.0,27.9,67.2,1006.9,193.5,1.6,3.3,203.0,0.19,21.3,25.9,"13:24:24",1
"17/06/29","13:40",0.0,28.1,67.7,1006.7,186.2,1.5,3.1,194.3,0.21,21.6,25.6,"13:34:48",1
"17/06/29","13:50",0.0,28.2,67.4,1006.9,189.6,1.5,4.0,220.9,0.22,21.6,26.0,"13:47:36",1
"17/06/29","14:00",0.0,28.2,67.3,1006.7,221.7,1.3,3.6,221.4,0.23,21.6,25.8,"13:53:44",1
"17/06/29","14:10",0.0,28.2,65.4,1006.9,209.6,1.1,2.7,212.1,0.20,21.1,25.9,"14:04:00",1
"17/06/29","14:20",0.0,28.7,63.4,1006.7,204.2,1.3,2.7,230.2,0.28,21.1,25.7,"14:15:12",1
"17/06/29","14:30",0.0,28.4,65.8,1006.9,196.3,1.0,2.8,216.9,0.22,21.4,25.9,"14:25:28",1
"17/06/29","14:40",0.0,28.3,68.1,1006.4,176.3,0.8,2.7,167.9,0.18,21.9,26.0,"14:32:16",1
"17/06/29","14:50",0.0,28.0,67.1,1006.7,190.4,1.0,2.1,196.7,0.12,21.4,25.9,"14:45:04",1
"17/06/29","15:00",0.0,28.0,68.9,1006.7,192.0,0.8,2.7,230.6,0.12,21.8,25.7,"14:57:56",1
"17/06/29","15:10",0.0,28.1,69.0,1006.4,176.8,1.0,1.9,180.4,0.14,21.9,25.9,"15:05:12",1
"17/06/29","15:20",0.0,27.8,68.9,1006.2,185.5,1.5,2.2,155.8,0.13,21.6,26.0,"15:12:56",1
"17/06/29","15:30",0.0,28.1,66.9,1006.2,172.9,0.7,1.7,160.2,0.14,21.4,26.0,"15:28:26",1
"17/06/29","15:40",0.0,27.9,67.8,1006.2,200.6,1.3,2.8,208.0,0.12,21.4,25.9,"15:34:48",1
"17/06/29","15:50",0.0,28.0,68.8,1005.7,192.0,0.8,2.1,196.2,0.12,21.8,25.9,"15:42:52",1
"17/06/29","16:00",0.0,28.2,68.9,1006.2,167.1,0.6,1.8,205.5,0.12,22.0,26.0,"15:50:48",1
"17/06/29","16:10",0.0,28.3,68.2,1005.5,213.5,0.6,1.4,230.7,0.12,21.9,26.0,"16:08:56",1
"17/06/29","16:20",0.0,28.1,68.1,1005.7,232.7,0.7,1.7,271.2,0.10,21.7,25.8,"16:14:32",1
"17/06/29","16:30",0.0,28.2,66.3,1005.7,228.7,1.3,2.8,232.5,0.15,21.4,25.9,"16:29:52",1
"17/06/29","16:40",0.0,28.0,67.3,1005.2,234.5,1.3,3.1,228.8,0.13,21.4,26.1,"16:33:52",1
"17/06/29","16:50",0.0,28.1,66.5,1005.5,297.8,0.8,2.5,348.2,0.11,21.3,26.0,"16:46:56",1
"17/06/29","17:00",0.0,28.4,68.0,1005.5,196.8,0.5,1.7,205.4,0.11,22.0,25.9,"16:55:52",1
"17/06/29","17:10",0.0,28.6,63.7,1005.5,225.4,0.5,1.3,217.8,0.09,21.1,26.0,"17:04:16",1
"17/06/29","17:20",0.0,28.3,64.5,1006.0,208.3,1.0,2.7,223.1,0.05,21.0,25.9,"17:19:52",1
"17/06/29","17:30",0.0,27.9,65.3,1005.7,224.2,1.3,3.2,217.0,0.06,20.8,26.0,"17:22:40",1
"17/06/29","17:40",0.0,27.6,65.4,1005.7,250.7,1.2,2.5,252.6,0.05,20.6,25.9,"17:33:28",1
"17/06/29","17:50",0.0,27.4,66.8,1006.0,230.9,1.2,2.4,236.2,0.04,20.7,25.8,"17:43:36",1
"17/06/29","18:00",0.0,27.3,67.3,1006.2,248.9,1.1,2.9,224.5,0.04,20.7,26.0,"17:52:48",1
"17/06/29","18:10",0.0,27.2,68.5,1006.0,252.5,1.2,2.7,231.7,0.04,20.9,25.8,"18:08:48",1
"17/06/29","18:20",0.0,27.0,71.0,1006.2,246.2,1.0,2.1,233.3,0.03,21.3,25.8,"18:11:20",1
"17/06/29","18:30",0.0,26.8,70.8,1006.0,253.8,1.0,1.8,239.2,0.02,21.1,25.7,"18:26:08",1
"17/06/29","18:40",0.0,26.6,71.5,1006.2,267.7,0.7,1.2,285.9,0.01,21.1,25.7,"18:31:36",1
"17/06/29","18:50",0.0,26.5,72.3,1006.4,283.1,0.7,1.7,334.9,0.00,21.1,25.7,"18:42:40",1
"17/06/29","19:00",0.0,26.3,73.3,1006.2,273.9,0.7,1.8,256.4,0.00,21.2,25.4,"18:54:08",1
"17/06/29","19:10",0.0,26.1,73.4,1006.4,310.6,0.8,1.7,344.0,0.00,21.0,25.5,"19:06:16",1
"17/06/29","19:20",0.0,25.9,74.2,1006.4,327.8,1.0,1.6,1.2,0.00,21.0,25.4,"19:18:56",1
"17/06/29","19:30",0.0,25.6,75.6,1006.4,303.5,0.6,1.3,259.0,0.00,21.0,25.2,"19:22:08",1
"17/06/29","19:40",0.0,25.2,77.2,1006.7,339.7,0.7,1.1,344.3,0.00,21.0,25.2,"19:30:24",1
"17/06/29","19:50",0.0,24.8,78.6,1006.7,290.1,0.7,1.0,324.4,0.00,20.9,25.3,"19:40:40",1
"17/06/29","20:00",0.0,24.5,79.9,1006.7,284.3,0.7,1.2,287.1,0.00,20.8,24.8,"19:54:08",1
"17/06/29","20:10",0.0,24.4,81.2,1006.7,321.4,1.1,1.4,328.5,0.00,21.0,25.1,"20:05:28",1
"17/06/29","20:20",0.0,24.2,82.2,1006.7,322.7,1.1,1.8,337.8,0.00,21.0,25.1,"20:12:56",1
"17/06/29","20:30",0.0,24.1,82.2,1006.7,275.9,0.8,1.3,262.0,0.00,20.9,24.8,"20:26:40",1
"17/06/29","20:40",0.0,24.0,82.5,1006.7,320.4,1.1,1.9,329.0,0.00,20.9,24.9,"20:33:52",1
"17/06/29","20:50",0.0,23.9,82.6,1007.1,283.1,1.0,1.4,321.2,0.00,20.8,24.7,"20:41:04",1
"17/06/29","21:00",0.0,23.9,82.4,1007.4,302.5,1.0,1.3,333.4,0.00,20.8,24.7,"20:56:48",1
"17/06/29","21:10",0.0,23.9,83.2,1007.4,315.9,0.7,1.4,326.1,0.00,20.9,24.7,"21:04:00",1
"17/06/29","21:20",0.0,24.0,84.4,1007.6,279.6,0.5,0.9,303.3,0.00,21.2,24.7,"21:10:32",1
"17/06/29","21:30",0.0,23.7,84.4,1007.6,301.9,0.7,1.2,321.5,0.00,21.0,24.4,"21:22:56",1
"17/06/29","21:40",0.0,23.7,85.5,1007.4,307.9,1.0,1.6,324.8,0.00,21.2,24.5,"21:32:16",1
"17/06/29","21:50",0.0,23.6,85.6,1007.6,331.1,1.1,1.6,323.3,0.00,21.1,24.4,"21:44:08",1
"17/06/29","22:00",0.0,23.6,85.4,1007.4,326.6,1.2,2.0,335.7,0.00,21.0,24.6,"21:59:04",1
"17/06/29","22:10",0.0,23.6,84.5,1007.4,303.8,1.0,1.8,327.5,0.00,20.9,24.3,"22:00:24",1
"17/06/29","22:20",0.0,23.6,84.0,1007.6,320.9,0.6,1.4,337.3,0.00,20.8,24.4,"22:10:24",1
"17/06/29","22:30",0.0,23.7,83.9,1007.6,303.7,1.3,1.8,316.1,0.00,20.9,24.2,"22:20:40",1
"17/06/29","22:40",0.0,23.7,83.7,1008.1,305.7,1.1,1.7,307.8,0.00,20.8,24.2,"22:30:08",1
"17/06/29","22:50",0.0,23.8,84.4,1007.6,312.2,0.8,1.3,317.7,0.00,21.1,24.1,"22:41:44",1
"17/06/29","23:00",0.0,23.6,84.7,1008.1,322.1,1.2,1.6,326.6,0.00,20.9,24.2,"22:55:12",1
"17/06/29","23:10",0.0,23.4,85.7,1008.1,292.9,1.1,2.1,329.4,0.00,20.9,24.4,"23:01:20",1
"17/06/29","23:20",0.0,23.3,86.7,1008.1,305.2,1.0,1.6,327.1,0.00,21.0,24.1,"23:19:12",1
"17/06/29","23:30",0.0,23.1,87.9,1008.1,308.1,1.1,1.6,323.3,0.00,21.0,24.2,"23:22:08",1
"17/06/29","23:40",0.0,22.8,88.7,1008.3,275.1,0.7,1.4,307.7,0.00,20.9,24.2,"23:31:28",1
"17/06/29","23:50",0.0,22.6,89.5,1007.8,274.8,0.7,1.1,300.6,0.00,20.8,24.0,"23:49:36",1
"17/06/29","24:00",0.0,22.5,90.3,1007.8,286.2,0.7,1.1,289.2,0.00,20.9,23.9,"23:50:08",1
